Weather Roundup
Issued by NWS Chicago, IL

Home | Current Version | Previous Version | Text Only | Print | Product List | Glossary Off
Versions: 1 2 3 4 5 6 7 8 9 10 11 12 13 14 15 16 17 18 19 20 21 22 23 24 25 26 27 28 29 30 31 32 33 34 35 36 37 38 39 40 41 42 43 44 45 46 47 48 49 50

000
NZUS59 KLOT 290708
HRRLOT

CHICAGO AREA WEATHER ROUNDUP
NATIONAL WEATHER SERVICE CHICAGO/ROMEOVILLE IL
200 AM CDT SAT APR 29 2017

NOTE: "FAIR" INDICATES FEW OR NO CLOUDS BELOW 12,000 FEET WITH NO
SIGNIFICANT WEATHER AND/OR OBSTRUCTIONS TO VISIBILITY.

* THESE STATIONS ARE NOT UNDER NWS QUALITY CONTROL. THEY ALSO MAY NOT
  REPORT WEATHER SUCH AS PRECIPITATION OR FOG.

ILZ005-006-012>014-019>023-290800-
NORTHEAST ILLINOIS

CITY           SKY/WX    TMP DP  RH WIND       PRES   REMARKS
OHARE          CLOUDY    46  39  76 NE14      30.04R
MIDWAY         CLOUDY    47  41  80 NE13      30.04R
AURORA         CLOUDY    49  42  77 E15       30.04R
LANSING*       CLOUDY    46  42  84 NE9G18    30.03R
JOLIET*        CLOUDY    48  41  75 NE10G18   30.02R
WAUKEGAN       CLOUDY    43  40  89 NE12G20   30.03R
DUPAGE AIRPORT CLOUDY    46  43  89 NE18      30.02R
WHEELING       CLOUDY    44  41  89 NE8       30.05R
KANKAKEE*      CLOUDY    49  41  74 N15G22    29.96F
MORRIS*        CLOUDY    47  39  73 NE5       30.01R
LEWIS AIRPORT* CLOUDY    46  43  88 NE18G24   30.00R
NORTHERLY ISL    N/A     45  40  82 N14         N/A
$$

WIZ051-052-058>065-066-070>072-290800-
SOUTHEAST WISCONSIN

CITY           SKY/WX    TMP DP  RH WIND       PRES   REMARKS
MILWAUKEE      CLOUDY    44  41  89 N9        30.05R
KENOSHA*       CLOUDY    44  39  82 NE8       30.04R
RACINE*        CLOUDY    42  37  82 NE12      30.06R
WAUKESHA       CLOUDY    43  37  81 N7        30.06R
WEST BEND      CLOUDY    43  37  81 NE9       30.07R
$$

INZ001>003-010>013-019-020-290800-
NORTHWEST INDIANA

CITY           SKY/WX    TMP DP  RH WIND       PRES   REMARKS
GARY*          CLOUDY    47  41  77 N12G20    30.04R
MICHIGAN CITY* NOT AVBL
RENSSELAER*    NOT AVBL
VALPARAISO     CLOUDY    48  42  80 N10       29.97F
$$

LMZ740>746-290800-
SOUTHERN LAKE MICHIGAN

STATION/POSITION TIME  SKY/WX   TEMP WIND        PRES    VSBY
                                AIR  DIR/SP/G
                 (UTC)          (F)  (DEG/KT/KT) (MB)    (MI)
HARRISON CRIB    0630            45   20/ 17/ 19   N/A
BURNHAM HARBOR   0700            45   20/ 10/ 20   N/A
CALUMET HARBOR   0648            45   10/ 11/ 15 1017.0R
BURNS HARBOR     0640            47   60/ 14/ 17 1016.9R
MICHIGAN CITY    0640            45   40/ 15/ 17   N/A
$$

ABBREVIATIONS USED IN REMARKS
   TC - TEMPERATURE IN CELSIUS
  WCI - WIND CHILL INDEX
   HX - HEAT INDEX
  VSB - VISIBILITY
$$



USA.gov is the U.S. government's official web portal to all federal, state and local government web resources and services.